Weather History for KSLK - July, 2014

Change the Weather History Date:

Tuesday, July 15, 2014

  Actual Average Record
Temperature  
Mean Temperature 65 °F 64 °F  
Max Temperature 74 °F 76 °F 92 °F (1952)
Min Temperature 55 °F 51 °F 38 °F (1950)
Degree Days  
Heating Degree Days 1    
Cooling Degree Days 0 2  
Month to date cooling degree days 33 30  
Year to date cooling degree days 55 59  
Since 1 June cooling degree days 54 56  
Growing Degree Days 14 (Base 50)    
Moisture  
Dew Point 62 °F    
Average Humidity 84    
Maximum Humidity 100    
Minimum Humidity 68    
Precipitation  
Precipitation 0.68 in 0.12 in 0.68 in (2014)
Month to date precipitation 1.78 2.05  
Year to date precipitation 20.72 18.25  
Sea Level Pressure  
Sea Level Pressure 29.74 in    
Wind  
Wind Speed 5 mph (SW)    
Max Wind Speed 16 mph    
Max Gust Speed 24 mph    
Visibility 7 miles    
Events Fog , Rain    
T = Trace of Precipitation, MM = Missing Value Source: NWS Daily Summary

Daily Weather History Graph

Daily Weather History Graph

Search for Another Location

Airport or City:

Trip Planner

Search our weather history database for the weather conditions in past years. The results will help you decide how hot, cold, wet, or windy it might be!

Date:

Astronomy

Jul. 15, 2014 Rise Set
Actual Time 5:26 AM EDT 8:38 PM EDT
Civil Twilight 4:51 AM EDT 9:13 PM EDT
Nautical Twilight 4:05 AM EDT 9:59 PM EDT
Astronomical Twilight 3:09 AM EDT 10:54 PM EDT
Moon 10:32 PM EDT (7/15) 9:28 AM EDT (7/15)
Length of Visible Light 16h 22m
Length of Day
15h 11m
Waning Gibbous, 85% of the Moon is Illuminated
Jul 15
Waning Gibbous
Jul 18
Last Quarter
Jul 26
New
Aug 3
First Quarter
Aug 10
Full

Hourly Weather History & Observations

Time (EDT) Temp. Dew Point Humidity Pressure Visibility Wind Dir Wind Speed Gust Speed Precip Events Conditions
2:51 AM 57.9 °F 55.9 °F 93% 29.80 in 7.0 mi Calm Calm - N/A   Mostly Cloudy
4:51 AM 57.0 °F 55.9 °F 96% 29.78 in 6.0 mi Calm Calm - N/A   Scattered Clouds
5:06 AM 55.9 °F 55.0 °F 97% 29.79 in 1.8 mi Calm Calm - N/A   Scattered Clouds
5:16 AM 55.0 °F 54.0 °F 96% 29.79 in 3.0 mi Calm Calm - N/A   Partly Cloudy
6:31 AM 57.9 °F 57.0 °F 97% 29.80 in 7.0 mi Calm Calm - N/A   Mostly Cloudy
6:38 AM 57.9 °F 55.9 °F 93% 29.79 in 9.0 mi Calm Calm - N/A   Scattered Clouds
6:51 AM 59.0 °F 57.0 °F 93% 29.77 in 9.0 mi Calm Calm - N/A   Partly Cloudy
7:51 AM 64.9 °F 57.0 °F 75% 29.75 in 10.0 mi Calm Calm - N/A   Partly Cloudy
8:51 AM 69.1 °F 61.0 °F 75% 29.74 in 10.0 mi Calm Calm - N/A   Partly Cloudy
9:51 AM 72.0 °F 63.0 °F 73% 29.73 in 10.0 mi South 6.9 mph - N/A   Mostly Cloudy
10:51 AM 73.0 °F 62.1 °F 68% 29.72 in 10.0 mi SSE 9.2 mph - N/A   Mostly Cloudy
11:51 AM 73.0 °F 62.1 °F 68% 29.69 in 10.0 mi SSE 4.6 mph - N/A   Overcast
12:31 PM 66.9 °F 63.0 °F 87% 29.72 in 1.8 mi WSW 9.2 mph 24.2 mph 0.06 in Rain Rain
12:36 PM 66.0 °F 63.0 °F 90% 29.73 in 0.8 mi WSW 10.4 mph 24.2 mph 0.14 in Rain Heavy Rain
12:51 PM 64.9 °F 63.0 °F 93% 29.73 in 0.5 mi WSW 11.5 mph 23.0 mph 0.53 in Fog , Rain Heavy Rain
1:08 PM 64.9 °F 64.0 °F 97% 29.74 in 2.0 mi Variable 4.6 mph - 0.13 in Rain Light Rain
1:16 PM 64.9 °F 64.0 °F 97% 29.74 in 4.0 mi SW 5.8 mph - 0.14 in Rain Light Rain
1:39 PM 66.9 °F 64.9 °F 93% 29.74 in 9.0 mi SW 6.9 mph - 0.15 in Rain Light Rain
1:51 PM 66.9 °F 66.0 °F 97% 29.73 in 7.0 mi SW 5.8 mph - 0.15 in Rain Light Rain
2:41 PM 70.0 °F 64.9 °F 84% 29.74 in 10.0 mi SW 12.7 mph - 0.00 in   Mostly Cloudy
3:51 PM 71.1 °F 66.0 °F 84% 29.72 in 9.0 mi WSW 10.4 mph - N/A   Clear
4:30 PM 72.0 °F 66.0 °F 81% 29.73 in 9.0 mi SSW 10.4 mph - N/A   Mostly Cloudy
4:51 PM 72.0 °F 64.9 °F 78% 29.72 in 10.0 mi SW 15.0 mph - N/A   Mostly Cloudy
5:32 PM 72.0 °F 64.0 °F 76% 29.73 in 10.0 mi WSW 8.1 mph - N/A   Scattered Clouds
5:51 PM 72.0 °F 64.9 °F 78% 29.72 in 10.0 mi SW 6.9 mph - N/A   Partly Cloudy
6:51 PM 73.0 °F 64.0 °F 73% 29.71 in 10.0 mi SSW 9.2 mph - N/A   Clear
8:51 PM 66.0 °F 63.0 °F 90% 29.73 in 10.0 mi SSW 4.6 mph - N/A   Clear
10:51 PM 66.9 °F 62.1 °F 84% 29.75 in 10.0 mi West 4.6 mph - N/A   Overcast